Regional Weather Roundup
Issued by NWS Wilmington, NC

Home | Current Version | Previous Version | Text Only | Print | Product List | Glossary On
Versions: 1 2 3 4 5 6 7 8 9 10 11 12 13 14 15 16 17 18 19 20 21 22 23 24 25 26 27 28 29 30 31 32 33 34 35 36 37 38 39 40 41 42 43 44 45 46 47 48 49 50
000
ASUS42 KILM 302210
RWRILM
RWRILM
REGIONAL HOURLY WEATHER ROUNDUP
NATIONAL WEATHER SERVICE WILMINGTON NC
600 PM EDT WED JUL 30 2014

NOTE: "FAIR" INDICATES FEW OR NO CLOUDS BELOW 12,000 FEET WITH NO
SIGNIFICANT WEATHER AND/OR OBSTRUCTIONS TO VISIBILITY.

...............WFO WILMINGTON COUNTY WARNING AREA...............

......COASTAL NC AND SC COUNTIES......

CITY           SKY/WX    TMP DP  RH WIND       PRES   REMARKS
WILMINGTON     SUNNY     82  64  54 E10       30.01F
SOUTHPORT      SUNNY     81  65  57 E6        30.01F
N MYRTLE BEACH PTSUNNY   82  65  56 E7        30.01S
MYRTLE BEACH   PTSUNNY   82  66  57 SE9G16    30.00S

......INLAND NC AND SC COUNTIES.......

CITY           SKY/WX    TMP DP  RH WIND       PRES   REMARKS
LUMBERTON      PTSUNNY   85  61  44 E6        29.99F
ELIZABETHTOWN  PTSUNNY   83  61  47 CALM      30.01S
WHITEVILLE     MOSUNNY   85  63  48 E5        30.00S
FLORENCE       PTSUNNY   82  66  58 S12       30.00S
DARLINGTON     MOSUNNY   84  63  48 E7        30.01S

....................REST OF NORTH CAROLINA......................

.........EASTERN NC.........

CITY           SKY/WX    TMP DP  RH WIND       PRES   REMARKS
CAPE HATTERAS  SUNNY     80  61  52 NE10      30.05S
JACKSONVILLE   SUNNY     84  61  45 E7        30.02S
MOREHEAD CITY  SUNNY     81  66  60 E9        30.03S
KENANSVILLE    SUNNY     82  59  44 CALM      30.02F
NEW BERN       SUNNY     83  64  52 SE9       30.03F
ELIZABETH CITY PTSUNNY   78  62  57 E7        30.05S

.........CENTRAL NC.........

CITY           SKY/WX    TMP DP  RH WIND       PRES   REMARKS
RALEIGH DURHAM MOSUNNY   78  63  59 E8        30.04F
ROCKY MOUNT    PTSUNNY   83  62  49 E6        30.03F
ROANOKE RAPIDS NOT AVBL
FAYETTEVILLE   MOSUNNY   86  61  42 NE6       30.00F
HOFFMAN        SUNNY     83  63  50 NE7       30.03S

.........WESTERN NC.........

CITY           SKY/WX    TMP DP  RH WIND       PRES   REMARKS
CHARLOTTE      PTSUNNY   83  58  42 N6        30.04S
GREENSBORO     MOSUNNY   79  61  53 E6        30.04F
HICKORY        NOT AVBL
BOONE          NOT AVBL
ASHEVILLE      NOT AVBL

.....................REST OF SOUTH CAROLINA.....................

.........EASTERN SC.........

CITY           SKY/WX    TMP DP  RH WIND       PRES   REMARKS
CHARLESTON     PTSUNNY   85  67  54 E13       29.99R
BEAUFORT MCAS  PTSUNNY   83  68  60 S8        29.97S
HILTON HEAD    NOT AVBL

.........CENTRAL SC.........

CITY           SKY/WX    TMP DP  RH WIND       PRES   REMARKS
COLUMBIA       PTSUNNY   82  65  56 S12       29.99R
ORANGEBURG     CLOUDY    75  68  78 NE7       30.00F
SUMTER SHAW    PTSUNNY   78  68  69 S9        29.99R

.........WESTERN SC.........

CITY           SKY/WX    TMP DP  RH WIND       PRES   REMARKS
GREENVILLE     NOT AVBL
ROCK HILL      PTSUNNY   82  61  48 N3        30.04S
ANDERSON       MOSUNNY   84  58  40 N6        30.03S
CLEMSON        NOT AVBL
GREENWOOD      PTSUNNY   85  62  46 N9        30.03S


...................COASTAL AND OFFSHORE REPORTS..................

................LOCAL PIERS AND NC RESERVE................


STATION/POSITION TIME  SKY/WX   TEMP    WIND        PRES    VSBY
                                AIR SEA DIR/SP/G
                 (UTC)          (F)     (DEG/KT/KT) (MB)    (MI)
JOHNY MRCER PIER 2200            80 85   90/ 14/ 16 1015.7F
NC RESRV MASNBRO NOT AVBL
OCEAN CREST PIER 2200            81 85  100/ 13/ 15 1015.2F
SPRINGMAID  PIER 2200            81 84   80/ 13/ 15 1016.0S


................COASTAL AND OFFSHORE BUOYS................


STATION/POSITION TIME  SKY/WX   TEMP    WIND        PRES    VSBY
                                AIR SEA DIR/SP/G
                 (UTC)          (F)     (DEG/KT/KT) (MB)    (MI)
DIMNDSHOAL 41025 2200                   VRB 14/ 16  1017.0F
WVE H/P(F/S)=  4/ 6 WND WVE H/P(F/S)=  3/ 6 SWL H/P/D(F/S/D)=  2/110/ 8

CAPE LOOKOUT     2100            78      60/ 13/ 15 1017.0F
ONSLOW BAY 41036 2200            79 81   60/ 14/ 17 1016.7F
WVE H/P(F/S)=  4/ 6 WND WVE H/P(F/S)=  3/ 6 SWL H/P/D(F/S/D)=  2/120/ 8

5 WRITEBCH 41038 2100            77 82   90/ 12/ 17   N/A
MASONBORO  41110 2200               82                N/A
WVE H/P(F/S)=  3/ 4 WND WVE H/P(F/S)=  3/ 4

WILM HARBR 41108 NOT AVBL
27WRITEBCH 41037 2100            76 82   80/ 14/ 16 1016.2F
FRYING PAN 41013 NOT AVBL
SUNST NRSH 41024 2100            82      90/ 14/ 17 1015.9F
CAPRS NRSH 41029 2100            84     110/ 16/ 17   N/A
EDISTO     41004 2200            82 84   80/ 14/ 17 1014.7R
WVE H/P(F/S)=  3/ 5 WND WVE H/P(F/S)=  3/ 5 SWL H/P/D(F/S/D)=  2/ 8



..........OFFSHORE BUOYS BEYOND 100 NM OFFSHORE...........
.....IN A TRIANGLE---HAT TO BERMUDA TO BAHAMAS TO HAT.....


STATION/POSITION TIME  SKY/WX   TEMP    WIND        PRES    VSBY
                                AIR SEA DIR/SP/G
                 (UTC)          (F)     (DEG/KT/KT) (MB)    (MI)
150E HAT   41001 NOT AVBL
W BERMUDA  41048 2128            83 82  170/ 16/ 17 1018.2F
WVE H/P(F/S)=  6/ 6 WND WVE H/P(F/S)=  5/ 6 SWL H/P/D(F/S/D)=  2/ 60/15

ATLANTIC S 41049 2051            82 84  100/ 10/ 12 1020.9
WVE H/P(F/S)=  3/ 5 WND WVE H/P(F/S)=  2/ 4 SWL H/P/D(F/S/D)=  3/120/ 5

E BAHAMAS  41046 2054            82 84  110/ 14/ 16 1017.2R
WVE H/P(F/S)=  5/ 6 WND WVE H/P(F/S)=  3/ 4 SWL H/P/D(F/S/D)=  3/110/ 6

NE BAHAMAS 41047 2053            83 85  170/  8/ 10 1018.0F
WVE H/P(F/S)=  4/ 6 WND WVE H/P(F/S)=  2/ 4 SWL H/P/D(F/S/D)=  3/140/ 6

120E CANVRL41010 2200            84 85  240/  8/  8 1014.4S
WVE H/P(F/S)=  2/ 8 WND WVE H/P(F/S)=  2/ 4 SWL H/P/D(F/S/D)=  2/ 90/ 8


END


USA.gov is the U.S. government's official web portal to all federal, state and local government web resources and services.